Tracking 19795 objects as of 19-Jul-2019
HD Live streaming from Space Station
objects crossing your sky now

COSMOS 2268

Track COSMOS 2268 now!
10-day predictions
COSMOS 2268 is classified as:


NORAD ID: 22999
Int'l Code: 1994-011A
Perigee: 1,417.3 km
Apogee: 1,433.3 km
Inclination: 82.6 °
Period: 114.2 minutes
Semi major axis: 7796 km
RCS: 1.1684 m2 (large)
Launch date: February 12, 1994
Source: Commonwealth of Independent States (former USSR) (CIS)
Launch site: PLESETSK MISSILE AND SPACE COMPLEX (PKMTR)
aabbcc
Your satellite tracking list
Your tracking list is empty




NASA's NSSDC Master Catalog

Two Line Element Set (TLE):
1 22999U 94011A   19198.85674093 -.00000002 +00000-0 -69606-4 0  9991
2 22999 082.5773 149.5150 0010247 148.4285 239.8101 12.61156420170309
Source of the keplerian elements: AFSPC